Change the Weather History Date:

Wednesday, February 8, 2012

  Actual Average Record
Temperature  
Mean Temperature 29 °F 25 °F  
Max Temperature 34 °F 33 °F 53 °F (2001)
Min Temperature 24 °F 18 °F -12 °F (2007)
Degree Days  
Heating Degree Days 36 40  
Month to date heating degree days 247 323  
Since 1 July heating degree days 4004  
Cooling Degree Days 0 0  
Month to date cooling degree days 0 0  
Year to date cooling degree days 0 0  
Moisture  
Dew Point 22 °F    
Average Humidity 73    
Maximum Humidity 87    
Minimum Humidity 58    
Precipitation  
Precipitation T in 0.05 in 0.88 in (2001)
Month to date precipitation 0.48 0.43  
Year to date precipitation 2.30 2.36  
Snow  
Snow T in 0.30 in 3.40 in (2014)
Month to date snowfall T 2.1  
Since 1 July snowfall 16.3 23.1  
Snow Depth 0.00 in    
Sea Level Pressure  
Sea Level Pressure 30.35 in    
Wind  
Wind Speed 9 mph (NNW)    
Max Wind Speed 13 mph    
Max Gust Speed 20 mph    
Visibility 10 miles    
Events      
T = Trace of Precipitation, MM = Missing Value Source: NWS Daily Summary

Daily Weather History Graph

Daily Weather History Graph

Search for Another Location

Airport or City:

Trip Planner

Search our weather history database for the weather conditions in past years. The results will help you decide how hot, cold, wet, or windy it might be!

Date:

Astronomy

Feb. 08, 2012 Rise Set
Actual Time 6:57 AM CST 5:16 PM CST
Civil Twilight 6:28 AM CST 5:45 PM CST
Nautical Twilight 5:55 AM CST 6:18 PM CST
Astronomical Twilight 5:23 AM CST 6:50 PM CST
Moon 6:37 PM CST (2/8) 6:58 AM CST (2/8)
Length of Visible Light 11h 17m
Length of Day
10h 19m
Full, 99% of the Moon is Illuminated
Feb 8
Full
Feb 14
Last Quarter
Feb 21
New
Feb 29
First Quarter
Mar 8
Full

Hourly Weather History & Observations

Time (CST) Temp. Windchill Dew Point Humidity Pressure Visibility Wind Dir Wind Speed Gust Speed Precip Events Conditions
12:15 AM 27.9 °F 19.1 °F 24.4 °F 87% 30.36 in 10.0 mi North 9.2 mph - N/A   Overcast
12:35 AM 28.2 °F 19.5 °F 23.4 °F 82% 30.36 in 10.0 mi North 9.2 mph - N/A   Overcast
12:55 AM 28.2 °F 21.0 °F 23.4 °F 82% 30.36 in 10.0 mi North 6.9 mph - N/A   Overcast
1:15 AM 28.0 °F 19.3 °F 23.0 °F 81% 30.35 in 10.0 mi North 9.2 mph - N/A   Overcast
1:35 AM 28.0 °F 20.0 °F 23.0 °F 81% 30.35 in 10.0 mi North 8.1 mph - N/A   Overcast
1:55 AM 28.0 °F 20.0 °F 22.8 °F 81% 30.35 in 10.0 mi North 8.1 mph - N/A   Overcast
2:15 AM 28.2 °F 21.0 °F 23.0 °F 81% 30.35 in 10.0 mi North 6.9 mph - N/A   Overcast
2:35 AM 28.0 °F 20.0 °F 22.3 °F 79% 30.35 in 10.0 mi North 8.1 mph - N/A   Overcast
2:55 AM 27.9 °F 20.6 °F 22.5 °F 80% 30.35 in 10.0 mi North 6.9 mph - N/A   Overcast
3:15 AM 27.5 °F 18.6 °F 22.1 °F 80% 30.35 in 10.0 mi North 9.2 mph - N/A   Overcast
3:35 AM 27.9 °F 19.8 °F 22.3 °F 80% 30.35 in 10.0 mi North 8.1 mph - N/A   Overcast
3:55 AM 27.9 °F 19.8 °F 22.3 °F 80% 30.35 in 10.0 mi North 8.1 mph - N/A   Overcast
4:15 AM 27.9 °F 19.8 °F 22.1 °F 79% 30.34 in 10.0 mi North 8.1 mph - N/A   Overcast
4:35 AM 27.9 °F 20.6 °F 22.1 °F 79% 30.35 in 10.0 mi North 6.9 mph - N/A   Overcast
4:55 AM 27.5 °F 18.0 °F 21.9 °F 80% 30.35 in 10.0 mi North 10.4 mph - N/A   Overcast
5:15 AM 27.5 °F 18.0 °F 21.7 °F 79% 30.35 in 10.0 mi North 10.4 mph - N/A   Overcast
5:35 AM 27.5 °F 18.6 °F 21.7 °F 79% 30.35 in 10.0 mi North 9.2 mph - N/A   Overcast
5:55 AM 27.5 °F 18.0 °F 21.9 °F 80% 30.35 in 10.0 mi North 10.4 mph - N/A   Overcast
6:15 AM 27.5 °F 18.0 °F 21.6 °F 78% 30.36 in 10.0 mi North 10.4 mph - N/A   Overcast
6:35 AM 27.5 °F 18.6 °F 21.9 °F 80% 30.36 in 10.0 mi North 9.2 mph - N/A   Overcast
6:55 AM 27.5 °F 19.3 °F 21.9 °F 80% 30.36 in 10.0 mi North 8.1 mph - N/A   Overcast
7:15 AM 27.5 °F 18.0 °F 21.4 °F 78% 30.37 in 10.0 mi North 10.4 mph - N/A   Overcast
7:35 AM 27.5 °F 18.0 °F 21.6 °F 78% 30.37 in 10.0 mi North 10.4 mph - N/A   Overcast
7:55 AM 27.5 °F 18.6 °F 21.6 °F 78% 30.37 in 10.0 mi North 9.2 mph - N/A   Overcast
8:15 AM 28.0 °F 19.3 °F 21.7 °F 77% 30.37 in 10.0 mi North 9.2 mph - N/A   Overcast
8:35 AM 28.0 °F 18.6 °F 21.4 °F 76% 30.38 in 10.0 mi North 10.4 mph - N/A   Overcast
8:55 AM 28.4 °F 19.1 °F 21.2 °F 74% 30.38 in 10.0 mi North 10.4 mph - N/A   Overcast
9:15 AM 28.6 °F 20.7 °F 21.7 °F 76% 30.38 in 10.0 mi North 8.1 mph - N/A   Overcast
9:35 AM 29.1 °F 20.6 °F 21.7 °F 74% 30.38 in 10.0 mi North 9.2 mph - N/A   Overcast
9:55 AM 29.3 °F 22.3 °F 21.0 °F 71% 30.38 in 10.0 mi North 6.9 mph - N/A   Overcast
10:15 AM 30.0 °F 22.4 °F 21.4 °F 70% 30.38 in 10.0 mi NNW 8.1 mph - N/A   Overcast
10:35 AM 30.9 °F 25.2 °F 21.7 °F 69% 30.38 in 10.0 mi NNW 5.8 mph - N/A   Mostly Cloudy
10:55 AM 31.6 °F 25.1 °F 21.9 °F 67% 30.38 in 10.0 mi NNW 6.9 mph - N/A   Scattered Clouds
11:15 AM 31.6 °F 23.7 °F 21.6 °F 66% 30.37 in 10.0 mi WNW 9.2 mph - N/A   Clear
11:35 AM 32.0 °F 24.2 °F 22.8 °F 69% 30.37 in 10.0 mi NW 9.2 mph - N/A   Scattered Clouds
11:55 AM 32.7 °F 25.0 °F 24.3 °F 71% 30.36 in 10.0 mi West 9.2 mph - N/A   Scattered Clouds
12:15 PM 33.4 °F 25.9 °F 24.3 °F 69% 30.35 in 10.0 mi West 9.2 mph 16.1 mph N/A   Scattered Clouds
12:35 PM 33.1 °F 26.1 °F 23.4 °F 67% 30.34 in 10.0 mi West 8.1 mph - N/A   Scattered Clouds
12:55 PM 32.7 °F 23.4 °F 23.0 °F 67% 30.34 in 10.0 mi West 12.7 mph - N/A   Clear
1:15 PM 33.1 °F 24.4 °F 23.2 °F 67% 30.33 in 10.0 mi West 11.5 mph 17.3 mph N/A   Clear
1:35 PM 32.4 °F 23.0 °F 20.8 °F 63% 30.32 in 10.0 mi NW 12.7 mph 17.3 mph N/A   Clear
1:55 PM 32.0 °F 23.6 °F 19.8 °F 61% 30.32 in 10.0 mi NW 10.4 mph - N/A   Clear
2:15 PM 32.0 °F 23.0 °F 19.9 °F 61% 30.32 in 10.0 mi NW 11.5 mph 19.6 mph N/A   Clear
2:35 PM 32.0 °F 23.6 °F 19.4 °F 60% 30.32 in 10.0 mi WNW 10.4 mph - N/A   Clear
2:55 PM 33.1 °F 23.9 °F 20.1 °F 59% 30.32 in 10.0 mi NW 12.7 mph - N/A   Clear
3:15 PM 32.2 °F 23.8 °F 19.0 °F 58% 30.32 in 10.0 mi NNW 10.4 mph - N/A   Clear
3:35 PM 32.2 °F 23.2 °F 19.0 °F 58% 30.32 in 10.0 mi WNW 11.5 mph - N/A   Clear
3:55 PM 32.0 °F 23.6 °F 20.3 °F 62% 30.32 in 10.0 mi WNW 10.4 mph - N/A   Clear
4:15 PM 32.0 °F 22.5 °F 21.2 °F 64% 30.32 in 10.0 mi WNW 12.7 mph - N/A   Clear
4:35 PM 31.8 °F 22.3 °F 21.4 °F 65% 30.32 in 10.0 mi West 12.7 mph - N/A   Clear
4:55 PM 31.1 °F 21.9 °F 21.4 °F 67% 30.32 in 10.0 mi West 11.5 mph - N/A   Clear
5:15 PM 30.4 °F 22.2 °F 21.9 °F 71% 30.32 in 10.0 mi WNW 9.2 mph - N/A   Clear
5:35 PM 30.0 °F 22.4 °F 22.6 °F 74% 30.31 in 10.0 mi WNW 8.1 mph - N/A   Clear
5:55 PM 29.1 °F 23.0 °F 21.4 °F 73% 30.31 in 10.0 mi West 5.8 mph - N/A   Clear
6:15 PM 28.8 °F 20.9 °F 23.0 °F 79% 30.32 in 10.0 mi West 8.1 mph - N/A   Clear
6:35 PM 28.4 °F 20.4 °F 23.0 °F 80% 30.32 in 10.0 mi West 8.1 mph - N/A   Clear
6:55 PM 28.0 °F 20.0 °F 22.6 °F 80% 30.32 in 10.0 mi West 8.1 mph - N/A   Clear
7:15 PM 27.5 °F 20.2 °F 22.8 °F 83% 30.32 in 10.0 mi West 6.9 mph - N/A   Clear
7:35 PM 27.3 °F 19.1 °F 23.0 °F 84% 30.32 in 10.0 mi West 8.1 mph - N/A   Clear
7:55 PM 27.1 °F 19.7 °F 23.0 °F 84% 30.32 in 10.0 mi West 6.9 mph - N/A   Clear
8:15 PM 26.6 °F 18.2 °F 22.6 °F 85% 30.32 in 10.0 mi WSW 8.1 mph - N/A   Clear
8:35 PM 26.6 °F 18.2 °F 22.5 °F 84% 30.32 in 10.0 mi WSW 8.1 mph - N/A   Clear
8:55 PM 26.2 °F 18.6 °F 22.1 °F 84% 30.32 in 10.0 mi WSW 6.9 mph - N/A   Clear
9:15 PM 25.9 °F 18.2 °F 22.1 °F 86% 30.32 in 10.0 mi West 6.9 mph - N/A   Clear
9:35 PM 25.5 °F 17.8 °F 21.9 °F 86% 30.31 in 10.0 mi West 6.9 mph - N/A   Clear
9:55 PM 25.3 °F 16.7 °F 21.9 °F 87% 30.32 in 10.0 mi WSW 8.1 mph - N/A   Clear
10:15 PM 25.2 °F 17.3 °F 21.9 °F 87% 30.31 in 10.0 mi West 6.9 mph - N/A   Clear
10:35 PM 25.2 °F 16.5 °F 21.9 °F 87% 30.31 in 10.0 mi West 8.1 mph - N/A   Clear
10:55 PM 24.8 °F 16.1 °F 21.9 °F 89% 30.31 in 10.0 mi West 8.1 mph - N/A   Clear
11:15 PM 24.6 °F 16.7 °F 21.9 °F 89% 30.31 in 10.0 mi West 6.9 mph - N/A   Clear
11:35 PM 24.8 °F 16.9 °F 21.2 °F 86% 30.31 in 10.0 mi West 6.9 mph - N/A   Clear
11:55 PM 23.9 °F 15.8 °F 21.6 °F 91% 30.31 in 10.0 mi West 6.9 mph - N/A   Clear